Home > Weather > Braga > Past weeks

Flag for Portugal Past Weather in Braga, Portugal — Yesterday and Last 2 Weeks

Now
63 °F

Mild.


Feels Like: 63 °F
Forecast: 62 / 80 °F
Wind: 1 mph from Southwest

Location: Porto / Pedras Rubras

Current Time: Jul 30, 2016 at 11:50:43 PM

Latest Report: Jul 30, 2016 at 10:00 PM


Visibility: N/A

Pressure: 30.08 "Hg

Humidity: 87%

Dew Point: 59 °F

Location of BragaLocation

Past Weather in Braga — Graph

°F

Braga Temperature Yesterday

Maximum temperature yesterday: 77 °F (at 5:00 PM)
Minimum temperature yesterday: 62 °F (at 11:00 PM)
Average temperature yesterday: 69 °F

High & Low Weather Summary for the Past Weeks

 TemperatureHumidityPressure
High94 °F (Jul 25, 12:00 PM)94% (Jul 18, 7:00 AM)30.14 "Hg (Jul 18, 7:00 AM)
Low59 °F (Jul 27, 7:00 AM)15% (Jul 16, 12:00 PM)29.89 "Hg (Jul 29, 7:00 PM)
Average70 °F65%30.03 "Hg
* Reported Jul 15 10:00 PM — Jul 30 10:00 PM, Braga, Weather by CustomWeather, © 2016

Note: Actual official high and low records may vary slightly from our data, if they occured in-between our weather recording intervals... More about our weather records

Advertising

Braga Weather History for the Previous 24 Hours

Scroll right to see more
 ConditionsComfort  
Time TempWeatherWind HumidityBarometerVisibility
10:00 PM
Sat, Jul 30
63 °FMild.1 mph87%30.08 "HgN/A
9:00 PM63 °FMild.2 mph87%30.06 "HgN/A
8:00 PM63 °FMild.3 mph86%30.05 "HgN/A
7:00 PM64 °FMild.3 mph85%30.03 "HgN/A
6:00 PM64 °FMild.5 mph81%30.02 "HgN/A
5:00 PM66 °FMild.6 mph77%30.02 "HgN/A
4:00 PM67 °FMild.6 mph77%30.02 "HgN/A
3:00 PM67 °FMild.6 mph77%30.01 "HgN/A
2:00 PM65 °FMild.7 mph84%30.02 "HgN/A
1:00 PM64 °FMild.7 mph85%30.01 "HgN/A
12:00 PM64 °FMild.8 mph86%30.01 "HgN/A
11:00 AM64 °FMild.6 mph85%29.99 "HgN/A
10:00 AM64 °FMild.7 mph87%29.98 "HgN/A
9:00 AM63 °FMild.7 mph89%29.97 "HgN/A
8:00 AM62 °FCool.7 mph89%29.96 "HgN/A
7:00 AM62 °FCool.7 mph87%29.93 "HgN/A
6:00 AM62 °FCool.6 mph88%29.92 "HgN/A
5:00 AM62 °FCool.6 mph88%29.91 "HgN/A
4:00 AM62 °FCool.5 mph87%29.91 "HgN/A
3:00 AM62 °FCool.5 mph86%29.91 "HgN/A
2:00 AM62 °FCool.5 mph85%29.92 "HgN/A
1:00 AM62 °FCool.3 mph84%29.93 "HgN/A
12:00 AM62 °FCool.2 mph83%29.93 "HgN/A
11:00 PM
Fri, Jul 29
62 °FCool.1 mph83%29.93 "HgN/A
Weather by CustomWeather, © 2016

See weather overviewHow to use our weather pages